Погода в Новке

Беларусь     55°08′02″N   30°09′08″E
темп.,
°C
ветер,
м/с
пор.,
м/с
влажн.,
%
обл.,
%
осадки,
мм/ч
давл.,
гПа
погр.,
м
17 октября, вс
вс1700:00+5юз6148716 0.0 1013454
03:00+5юз6139272 0.0 1013517
06:00+5зюз61390100 0.0 1013542
09:00+5зюз61287100 0.0 1013557
12:00+9зюз7107165 0.0 1013831
15:00+10зюз6106494 0.1 10121250
18:00+7юз51175100 0.1 1013368
21:00+7зюз51185100 0.3 1012551
18 октября, пн
пн1800:00+7зюз6128570 0.8 1012664
03:00+6зюз61186100 0.8 1012750
06:00+6з6118599 0.1 1011963
09:00+5з398413 1.3 1013519
12:00+8зсз69595 0.0 10141321
15:00+8зсз69525 0.0 10141674
18:00+5з48685 0.0 1014186
21:00+3з310815 0.0 1015244
19 октября, вт
вт1900:00+1з38905 0.0 1016200
03:00+1зсз38955 0.0 1017218
06:000сз399872 0.0 1019257
09:00+3сз4778100 0.0 1020787
12:00+4зсз5778100 0.1 1022641
15:00+4сз6869100 0.2 10221024
18:00+3ссз497593 0.1 1024612
21:000сз38885 0.1 1025196
20 октября, ср
ср2000:00−2сз33875 0.0 102661
03:00−2сз2282100 0.0 102625
06:00−1ююз237799 0.0 1026130
09:000ююз367779 0.0 1024219
12:00+4ююз6854100 0.0 1023539
15:00+6ююз71153100 0.0 1019706
18:00+5ю81563100 0.0 1016562
21:00+5ююз81778100 0.8 1013648
21 октября, чт
чт2100:00+5ююз91985100 2.0 1010675
03:00+6ююз81676100 2.0 1007498
06:00+6ююз81777100 0.0 1006547
09:00+7ююз8177698 0.0 1003575
12:00+8ююз81784100 2.9 1002591
15:00+8ююз81694100 7.5 1000535
18:00+10юз91788100 0.3 1000944
21:00+11юз9168595 0.3 10001006